Regional Weather Roundup
Issued by NWS

Home | Current Version | Previous Version | Text Only | Print | Product List | Glossary Off
Versions: 1 2 3 4 5 6 7 8 9 10 11 12 13 14 15 16 17 18 19 20 21 22 23 24 25 26 27 28 29 30 31 32 33 34 35 36 37 38 39 40 41 42 43 44 45 46 47 48 49 50

675
ASUS43 KLOT 140403
RWRIL

ILLINOIS REGIONAL WEATHER ROUNDUP
NATIONAL WEATHER SERVICE CHICAGO/ROMEOVILLE IL
1000 PM CST SAT FEB 13 2016

NOTE: "FAIR" INDICATES FEW OR NO CLOUDS BELOW 12,000 FEET WITH NO
SIGNIFICANT WEATHER AND/OR OBSTRUCTIONS TO VISIBILITY.

* THESE STATIONS ARE NOT UNDER NWS QUALITY CONTROL. THEY ALSO MAY NOT
  REPORT WEATHER SUCH AS PRECIPITATION OR FOG.

ILZ001-002-007-009-015-016-024-140500-
NORTHWEST ILLINOIS

CITY           SKY/WX    TMP DP  RH WIND       PRES   REMARKS
MOLINE         CLOUDY    17  -1  45 SE8       30.44F WCI   7
STERLING*      CLOUDY    14   0  52 E7        30.42S WCI   4
$$

ILZ003-004-008-010-011-017-018-140500-
NORTH CENTRAL ILLINOIS

CITY           SKY/WX    TMP DP  RH WIND       PRES   REMARKS
ROCKFORD       CLOUDY     9   0  67 CALM      30.47F
FREEPORT*      CLOUDY     7   1  76 CALM      30.46F
$$

ILZ005-006-012>014-019>023-140500-
NORTHEAST ILLINOIS

CITY           SKY/WX    TMP DP  RH WIND       PRES   REMARKS
CHICAGO-OHARE  MOCLDY    11  -4  51 N6        30.47F WCI   1
CHICAGO-MIDWAY CLOUDY    14  -4  44 CALM      30.48F
AURORA         CLOUDY    11   4  73 CALM      30.47F
WAUKEGAN       PTCLDY     3  -2  79 CALM      30.47S
DUPAGE AIRPORT CLOUDY     7  -3  64 CALM      30.46F
WHEELING       PTCLDY     9  -1  64 CALM      30.49F
NORTHERLY ISL    N/A     16  -8  34 SW2         N/A
$$

LMZ740>746-140500-
SOUTHERN LAKE MICHIGAN

STATION/POSITION SKY/WX   TEMP    WIND        PRES    VSBY  WAVE
                          AIR SEA DIR/SP/G                  HT/PER
                          (F)     (DEG/KT/KT) (MB)    (MI)  (FT/S)
HARRISON CRIB              17      20/  4/  5   N/A
BURNHAM HARBOR             16      CALM  /  4   N/A
CALUMET HARBOR             14                 1031.6F
BURNS HARBOR               12     180/  3/  6 1032.8S
MICHIGAN CITY              10     130/  5/  5   N/A
$$

ILZ025>027-034>036-040-047-049-050-058-095>099-140500-
WEST-CENTRAL ILLINOIS

CITY           SKY/WX    TMP DP  RH WIND       PRES   REMARKS
QUINCY         CLOUDY    17  10  74 E12       30.39F WCI   4
MACOMB*        CLOUDY    19   4  53 SE13      30.44F WCI   6
$$

ILZ028>032-037-038-041>044-048-051>054-059>061-140500-
CENTRAL ILLINOIS

CITY           SKY/WX    TMP DP  RH WIND       PRES   REMARKS
BLOOMINGTON    MOCLDY    17   3  54 SE7       30.45F WCI   8
DECATUR        MOCLDY    18   3  52 SE10      30.45F WCI   6
PEORIA         CLOUDY    18  -1  43 SE5       30.45F WCI  11
SPRINGFIELD    CLOUDY    20   5  52 SE9       30.45F WCI   9
TAYLORVILLE    NOT AVBL
$$

ILZ033-039-045-046-055>057-062-063-140500-
EAST-CENTRAL ILLINOIS

CITY           SKY/WX    TMP DP  RH WIND       PRES   REMARKS
CHAMPAIGN      CLOUDY    17   5  59 SE8       30.46F WCI   7
MATTOON        CLOUDY    17   2  51 SE6       30.46F WCI   9
$$

ILZ079-100>102-140500-
SOUTHWEST ILLINOIS

CITY           SKY/WX    TMP DP  RH WIND       PRES   REMARKS
ALTON          CLOUDY    21   7  53 E9        30.43F WCI  11
BELLEVILLE     CLOUDY    23   6  49 SE7       30.42F WCI  14
CAHOKIA*       CLOUDY    23   4  44 SE10      30.43F WCI  12
SPARTA*        CLOUDY    23   7  51 E7        30.44F WCI  14
$$

ILZ064>066-069>071-074>076-080>082-084>086-088>090-092>094-140500-
SOUTH-CENTRAL ILLINOIS

CITY           SKY/WX    TMP DP  RH WIND       PRES   REMARKS
CARBONDALE     CLOUDY    23   6  48 E9        30.45S WCI  13
MT. VERNON     CLOUDY    21   3  45 E6        30.45F WCI  14
CENTRALIA*     CLOUDY    22   6  51 E8        30.44F WCI  13
SALEM*         CLOUDY    22   5  47 E6        30.44F WCI  15
$$

ILZ067-068-072-073-078-083-087-091-140500-
SOUTHEAST ILLINOIS

CITY           SKY/WX    TMP DP  RH WIND       PRES   REMARKS
LAWRENCEVILLE  CLOUDY    19   5  54 NE8       30.49F WCI   9
HARRISBURG*    CLOUDY    23   9  54 E9        30.45F WCI  13
$$

ABBREVIATIONS USED IN REMARKS
   TC - TEMPERATURE IN CELSIUS
  WCI - WIND CHILL INDEX
   HX - HEAT INDEX
  VSB - VISIBILITY
$$





USA.gov is the U.S. government's official web portal to all federal, state and local government web resources and services.